[[{"header":{"parameterUnit":"m.s-1","parameterCategory":1,"la1":30.2991,"la2":30.254,"lo1":-89.0895,"lo2":-89.0444,"dy":0.0017,"dx":0.0017,"nx":28,"ny":28,"refTime":"2023-11-04T09:00:00:Z","depth":0,"parameterNumber":2,"parameterNumberName":"U-component_of_WINDS"},"data":[0,0,0,0,0,0,0,0,0,0,0,0,0,0,0,0,0,0,0,0,0,0,0,0,0,0,0,0,0,0,0,0,0,0,0,0,0,0,0,0,0,0,0,0,0,0,0,0,0,0,0,0,0,0,0,0,0,0,-1.1601,-1.1601,0,-1.1631,-1.1631,-1.1631,-1.1602,-1.1601,-1.16,-1.1599,-1.1629,-1.1631,-1.1633,0,0,0,0,0,0,0,0,0,0,0,0,0,-1.1519,-1.1521,-1.1601,-1.1601,-1.1602,-1.1631,-1.1631,-1.1631,-1.1602,-1.1601,-1.16,-1.1598,-1.1629,-1.1631,-1.1633,0,0,0,0,0,0,0,0,0,0,0,0,0,-1.1553,-1.1522,-1.1601,-1.1591,-1.159,-1.1631,-1.1631,-1.1632,-1.1603,-1.1601,-1.1599,-1.1598,-1.1628,-1.1631,-1.1634,-1.1686,0,0,-1.1642,-1.1643,0,0,0,0,0,0,0,0,-1.1551,-1.1556,-1.1592,-1.1591,-1.1591,-1.1611,-1.1613,-1.165,-1.1603,-1.1598,-1.1599,-1.1597,-1.1625,-1.1628,-1.1637,-1.1687,-1.1689,-1.1643,-1.1644,-1.1645,-1.1646,0,0,0,0,0,0,0,-1.1548,-1.1554,-1.1613,-1.1592,-1.1592,-1.1585,-1.1588,-1.162,-1.1621,-1.1598,-1.1596,-1.16,-1.1624,-1.1634,-1.1638,-1.1689,-1.1642,-1.1645,-1.1647,-1.1648,-1.1785,-1.1787,0,0,0,0,0,0,-1.1547,-1.1552,-1.1612,-1.1614,-1.1566,-1.1588,-1.1591,-1.1606,-1.162,-1.1621,-1.1601,-1.1599,-1.163,-1.1634,-1.1639,-1.1702,-1.1645,-1.1648,-1.165,-1.1783,-1.1785,-1.1787,0,0,0,0,0,0,-1.1546,-1.1553,-1.1611,-1.1582,-1.1589,-1.1591,-1.1608,-1.1608,-1.1618,-1.1623,-1.1623,-1.1612,-1.1629,-1.1635,-1.1675,-1.1702,-1.1649,-1.1652,-1.1781,-1.1784,-1.1786,-1.1828,0,0,0,0,0,0,-1.1543,-1.1552,-1.1572,-1.1583,-1.1591,-1.1646,-1.161,-1.161,-1.1623,-1.1619,-1.1633,-1.1633,-1.1628,-1.167,-1.1677,-1.1705,-1.1654,-1.1778,-1.1782,-1.1785,-1.1824,-1.1832,-1.1839,0,0,0,0,0,-1.1541,-1.1582,-1.1573,-1.1581,-1.1616,-1.1648,-1.1652,-1.1646,-1.1625,-1.1645,-1.1648,-1.1633,-1.1698,-1.1675,-1.1682,-1.1712,-1.1776,-1.1781,-1.1785,-1.1821,-1.183,-1.1838,0,0,0,0,0,0,-1.1574,-1.1584,-1.1574,-1.162,-1.1633,-1.1643,-1.1668,-1.1656,-1.1675,-1.1671,-1.1662,-1.1665,-1.1708,-1.1713,-1.1688,-1.1763,-1.1734,-1.174,-1.1759,-1.1768,-1.1775,-1.1773,-1.1657,0,0,0,0,0,-1.1587,-1.1613,-1.1619,-1.166,-1.1667,-1.1666,-1.168,-1.1674,-1.1687,-1.1693,-1.1699,-1.1712,-1.1736,-1.1752,-1.1774,-1.1824,-1.1827,-1.1848,-1.1855,-1.1861,-1.1867,-1.1895,-1.1905,-1.1802,-1.1801,-1.1801,0,0,-1.1614,-1.1622,-1.1639,-1.1667,-1.1676,-1.1703,-1.1671,-1.17,-1.1721,-1.1697,-1.1736,-1.1741,-1.1755,-1.1801,-1.1822,-1.1807,-1.1896,-1.1867,-1.1871,-1.1874,-1.1901,-1.1911,-1.1919,-1.1804,-1.1804,-1.1803,0,0,-1.1677,-1.1685,-1.1721,-1.1731,-1.1746,-1.1746,-1.1754,-1.1765,-1.1768,-1.1806,-1.179,-1.1813,-1.1854,-1.1865,-1.1877,-1.1945,-1.1931,-1.1952,-1.199,-1.2018,-1.2026,-1.2033,-1.2059,-1.2068,-1.1957,-1.1957,-1.1958,0,-1.1709,-1.1749,-1.174,-1.1772,-1.1785,-1.1765,-1.1801,-1.1811,-1.1833,-1.1843,-1.1826,-1.1877,-1.1885,-1.1934,-1.1951,-1.196,-1.197,-1.1951,-1.2026,-1.2033,-1.2039,-1.2064,-1.2073,-1.196,-1.196,-1.1959,-1.1959,0,-1.1788,-1.1815,-1.1842,-1.1864,-1.188,-1.1913,-1.191,-1.1928,-1.192,-1.1922,-1.1962,-1.1971,-1.1995,-1.2006,-1.1998,-1.2054,-1.2045,-1.2027,-1.1997,-1.2052,-1.2075,-1.2084,-1.1964,-1.1963,-1.1962,-1.1961,0,0,-1.1873,-1.189,-1.1901,-1.1911,-1.1926,-1.1947,-1.198,-1.2004,-1.2019,-1.2034,-1.2062,-1.2097,-1.2081,-1.2094,-1.2088,-1.2112,-1.2167,-1.2091,-1.2092,-1.2107,-1.2231,-1.2245,-1.2256,-1.2158,-1.216,-1.2161,-1.223,0,-1.1938,-1.1995,-1.1989,-1.2044,-1.207,-1.2052,-1.208,-1.2093,-1.2095,-1.2118,-1.212,-1.2145,-1.2121,-1.2129,-1.2152,-1.2156,-1.2192,-1.215,-1.2185,-1.2186,-1.2183,-1.2268,-1.2283,-1.2347,-1.2239,-1.224,-1.2241,0,-1.2021,-1.204,-1.2098,-1.211,-1.2121,-1.2147,-1.2169,-1.219,-1.2204,-1.2204,-1.2219,-1.2208,-1.2242,-1.2211,-1.2257,-1.2229,-1.2242,-1.2246,-1.2248,-1.2252,-1.2218,-1.2275,-1.2368,-1.2378,-1.2255,-1.2254,-1.2253,0,-1.208,-1.212,-1.216,-1.2169,-1.2184,-1.2202,-1.2209,-1.2222,-1.2237,-1.2256,-1.2265,-1.2288,-1.23,-1.2318,-1.2314,-1.2292,-1.2362,-1.233,-1.2364,-1.2364,-1.2381,-1.238,-1.2478,-1.2387,-1.2387,-1.2387,-1.2387,0,-1.2154,-1.219,-1.2187,-1.2211,-1.2252,-1.2244,-1.2284,-1.2289,-1.23,-1.2326,-1.231,-1.2335,-1.2328,-1.2352,-1.2349,-1.2389,-1.2394,-1.2395,-1.2395,-1.2398,-1.2398,-1.2407,-1.2403,-1.2389,-1.2389,-1.2388,-1.2388,0,-1.2227,-1.2226,-1.2268,-1.2279,-1.2283,-1.2312,-1.2321,-1.2345,-1.2345,-1.2378,-1.2385,-1.2387,-1.2414,-1.2412,-1.2443,-1.2441,-1.2491,-1.2484,-1.2486,-1.2485,-1.252,-1.2517,-1.2628,-1.2643,-1.2541,-1.2542,-1.2543,0,-1.2275,-1.2303,-1.2317,-1.2333,-1.2341,-1.2367,-1.2383,-1.2376,-1.2393,-1.2412,-1.2433,-1.2459,-1.248,-1.2525,-1.2529,-1.2553,-1.2547,-1.2585,-1.2551,-1.2554,-1.255,-1.2549,-1.2552,-1.2592,-1.2593,-1.2594,-1.2595,0,-1.2361,-1.2359,-1.2382,-1.2405,-1.2424,-1.2442,-1.2458,-1.2472,-1.2467,-1.2487,-1.2515,-1.2531,-1.2563,-1.259,-1.2612,-1.262,-1.2607,-1.2605,-1.2615,-1.2619,-1.262,-1.2621,-1.2506,-1.2603,-1.2602,-1.2602,-1.2601,-1.2601,-1.2424,-1.2448,-1.2462,-1.2488,-1.25,-1.2515,-1.2538,-1.2542,-1.2566,-1.2592,-1.2586,-1.2618,-1.2632,-1.2662,-1.2671,-1.2696,-1.2683,-1.2696,-1.27,-1.2703,-1.2708,-1.2615,-1.27,-1.27,-1.27,-1.27,-1.2699,0,-1.251,-1.2518,-1.2543,-1.2566,-1.2587,-1.2573,-1.259,-1.2608,-1.2637,-1.2651,-1.2672,-1.2705,-1.2731,-1.2737,-1.2762,-1.2781,-1.2776,-1.2788,-1.2787,-1.2789,-1.2718,-1.2708,-1.2792,-1.2792,-1.2792,-1.2792,-1.2792,-1.2792,-1.2558,-1.2599,-1.2598,-1.2645,-1.2652,-1.2684,-1.2696,-1.271,-1.2721,-1.2759,-1.2781,-1.2784,-1.2796,-1.2821,-1.2845,-1.2846,-1.2856,-1.2871,-1.287,-1.2803,-1.2794,-1.2786,-1.2776,-1.2873,-1.2873,-1.294,-1.294,-1.2941]},{"header":{"parameterUnit":"m.s-1","parameterCategory":1,"la1":30.2991,"la2":30.254,"lo1":-89.0895,"lo2":-89.0444,"dy":0.0017,"dx":0.0017,"nx":28,"ny":28,"refTime":"2023-11-04T09:00:00:Z","depth":0,"parameterNumber":3,"parameterNumberName":"V-component_of_WINDS"},"data":[0,0,0,0,0,0,0,0,0,0,0,0,0,0,0,0,0,0,0,0,0,0,0,0,0,0,0,0,0,0,0,0,0,0,0,0,0,0,0,0,0,0,0,0,0,0,0,0,0,0,0,0,0,0,0,0,0,0,-2.3852,-2.3852,0,-2.3884,-2.3884,-2.3885,-2.3853,-2.3852,-2.3851,-2.385,-2.3881,-2.3883,-2.3885,0,0,0,0,0,0,0,0,0,0,0,0,0,-2.3761,-2.3763,-2.3852,-2.3852,-2.3852,-2.3884,-2.3884,-2.3885,-2.3854,-2.3852,-2.3851,-2.3849,-2.388,-2.3883,-2.3885,0,0,0,0,0,0,0,0,0,0,0,0,0,-2.3798,-2.3763,-2.3852,-2.3841,-2.384,-2.3884,-2.3884,-2.3885,-2.3854,-2.3852,-2.385,-2.3848,-2.3879,-2.3882,-2.3885,-2.3941,0,0,-2.3894,-2.3896,0,0,0,0,0,0,0,0,-2.3795,-2.3801,-2.3842,-2.3842,-2.3841,-2.3863,-2.3864,-2.3904,-2.3854,-2.3849,-2.385,-2.3848,-2.3876,-2.3879,-2.3889,-2.3942,-2.3944,-2.3895,-2.3896,-2.3898,-2.3899,0,0,0,0,0,0,0,-2.3793,-2.3799,-2.3864,-2.3842,-2.3842,-2.3834,-2.3837,-2.3871,-2.3872,-2.3849,-2.3847,-2.3851,-2.3876,-2.3887,-2.389,-2.3944,-2.3895,-2.3897,-2.3899,-2.39,-2.4045,-2.4047,0,0,0,0,0,0,-2.3792,-2.3797,-2.3863,-2.3865,-2.3813,-2.3837,-2.384,-2.3858,-2.3872,-2.3872,-2.3853,-2.385,-2.3883,-2.3887,-2.3891,-2.3958,-2.3898,-2.3901,-2.3902,-2.4043,-2.4046,-2.4048,0,0,0,0,0,0,-2.379,-2.3798,-2.3862,-2.3831,-2.3838,-2.384,-2.386,-2.3859,-2.387,-2.3875,-2.3875,-2.3864,-2.3881,-2.3887,-2.3929,-2.3959,-2.3902,-2.3905,-2.4041,-2.4044,-2.4047,-2.4092,0,0,0,0,0,0,-2.3788,-2.3798,-2.3819,-2.3832,-2.384,-2.39,-2.3862,-2.3861,-2.3876,-2.3872,-2.3885,-2.3886,-2.388,-2.3925,-2.3932,-2.3962,-2.3907,-2.4038,-2.4042,-2.4046,-2.4088,-2.4096,-2.4103,0,0,0,0,0,-2.3784,-2.383,-2.382,-2.3829,-2.3867,-2.3902,-2.3907,-2.39,-2.3878,-2.39,-2.3903,-2.3885,-2.3954,-2.3929,-2.3937,-2.3968,-2.4036,-2.4041,-2.4045,-2.4084,-2.4095,-2.4103,0,0,0,0,0,0,-2.382,-2.3831,-2.3821,-2.3872,-2.3886,-2.3897,-2.3924,-2.3911,-2.3931,-2.3927,-2.3917,-2.392,-2.3965,-2.3971,-2.3943,-2.4023,-2.3991,-2.3998,-2.4018,-2.4028,-2.4036,-2.4034,-2.3909,0,0,0,0,0,-2.3834,-2.3862,-2.387,-2.3914,-2.3922,-2.3922,-2.3937,-2.393,-2.3945,-2.395,-2.3956,-2.397,-2.3995,-2.4012,-2.4034,-2.4088,-2.4091,-2.4113,-2.4121,-2.4127,-2.4133,-2.4163,-2.4173,-2.4063,-2.4063,-2.4063,0,0,-2.3863,-2.3872,-2.389,-2.3922,-2.3932,-2.3961,-2.3927,-2.3959,-2.398,-2.3955,-2.3996,-2.4001,-2.4016,-2.4064,-2.4086,-2.407,-2.4164,-2.4133,-2.4138,-2.4141,-2.4169,-2.4179,-2.4188,-2.4066,-2.4066,-2.4065,0,0,-2.393,-2.394,-2.3979,-2.399,-2.4007,-2.4006,-2.4016,-2.4028,-2.4031,-2.4072,-2.4054,-2.4078,-2.4121,-2.4133,-2.4144,-2.4217,-2.4202,-2.4224,-2.4265,-2.4294,-2.4303,-2.431,-2.4337,-2.4347,-2.423,-2.423,-2.423,0,-2.3964,-2.4008,-2.4,-2.4034,-2.4048,-2.4027,-2.4066,-2.4077,-2.41,-2.411,-2.4092,-2.4146,-2.4154,-2.4206,-2.4224,-2.4233,-2.4244,-2.4223,-2.4302,-2.431,-2.4317,-2.4342,-2.4352,-2.4233,-2.4233,-2.4232,-2.4232,0,-2.4049,-2.4079,-2.4108,-2.4132,-2.4149,-2.4185,-2.4183,-2.4201,-2.4193,-2.4195,-2.4237,-2.4246,-2.4271,-2.4283,-2.4275,-2.4333,-2.4323,-2.4304,-2.4272,-2.433,-2.4354,-2.4364,-2.4237,-2.4236,-2.4235,-2.4234,0,0,-2.414,-2.416,-2.4171,-2.4182,-2.4199,-2.4222,-2.4256,-2.4282,-2.4298,-2.4314,-2.4344,-2.4381,-2.4363,-2.4377,-2.437,-2.4395,-2.4453,-2.4373,-2.4373,-2.4388,-2.4519,-2.4534,-2.4546,-2.4443,-2.4444,-2.4446,-2.4518,0,-2.4209,-2.4271,-2.4265,-2.4324,-2.4352,-2.4333,-2.4363,-2.4377,-2.4379,-2.4403,-2.4404,-2.4431,-2.4406,-2.4414,-2.4438,-2.4441,-2.4479,-2.4435,-2.447,-2.4471,-2.4468,-2.4558,-2.4574,-2.4641,-2.4527,-2.4529,-2.453,0,-2.4298,-2.4319,-2.4381,-2.4394,-2.4406,-2.4434,-2.4457,-2.448,-2.4494,-2.4494,-2.4509,-2.4498,-2.4533,-2.45,-2.4548,-2.4518,-2.4532,-2.4536,-2.4538,-2.4542,-2.4505,-2.4565,-2.4663,-2.4673,-2.4544,-2.4543,-2.4542,0,-2.436,-2.4403,-2.4446,-2.4456,-2.4472,-2.4493,-2.45,-2.4513,-2.4529,-2.4549,-2.4559,-2.4582,-2.4595,-2.4613,-2.4608,-2.4584,-2.4658,-2.4624,-2.4659,-2.4659,-2.4676,-2.4675,-2.4779,-2.4683,-2.4683,-2.4683,-2.4683,0,-2.4438,-2.4477,-2.4474,-2.4501,-2.4544,-2.4536,-2.4579,-2.4584,-2.4596,-2.4623,-2.4606,-2.4632,-2.4624,-2.4648,-2.4645,-2.4686,-2.4691,-2.4692,-2.4691,-2.4694,-2.4694,-2.4704,-2.47,-2.4685,-2.4685,-2.4684,-2.4684,0,-2.4515,-2.4515,-2.4561,-2.4573,-2.4577,-2.4608,-2.4618,-2.4643,-2.4644,-2.4678,-2.4685,-2.4687,-2.4715,-2.4712,-2.4744,-2.4741,-2.4792,-2.4785,-2.4788,-2.4787,-2.4822,-2.4819,-2.4936,-2.4951,-2.4845,-2.4846,-2.4847,0,-2.4566,-2.4596,-2.4611,-2.4629,-2.4638,-2.4666,-2.4682,-2.4676,-2.4693,-2.4713,-2.4735,-2.4763,-2.4784,-2.4831,-2.4834,-2.4858,-2.4852,-2.4891,-2.4855,-2.4858,-2.4854,-2.4853,-2.4856,-2.4898,-2.4899,-2.49,-2.4901,0,-2.4656,-2.4655,-2.468,-2.4705,-2.4725,-2.4744,-2.4761,-2.4776,-2.4771,-2.4792,-2.4821,-2.4838,-2.4871,-2.4898,-2.4921,-2.4928,-2.4914,-2.4912,-2.4922,-2.4926,-2.4927,-2.4928,-2.4808,-2.491,-2.4909,-2.4908,-2.4908,-2.4908,-2.4723,-2.4748,-2.4764,-2.4792,-2.4805,-2.4821,-2.4846,-2.485,-2.4875,-2.4902,-2.4896,-2.4929,-2.4943,-2.4973,-2.4982,-2.5008,-2.4994,-2.5007,-2.5011,-2.5015,-2.502,-2.4922,-2.5012,-2.5012,-2.5012,-2.5011,-2.5011,0,-2.4813,-2.4822,-2.4848,-2.4874,-2.4896,-2.4881,-2.4899,-2.4919,-2.4949,-2.4964,-2.4986,-2.502,-2.5046,-2.5052,-2.5077,-2.5097,-2.5091,-2.5104,-2.5103,-2.5105,-2.503,-2.502,-2.5108,-2.5108,-2.5108,-2.5108,-2.5108,-2.5108,-2.4863,-2.4906,-2.4907,-2.4956,-2.4965,-2.4998,-2.501,-2.5025,-2.5037,-2.5076,-2.5099,-2.5102,-2.5114,-2.514,-2.5163,-2.5164,-2.5175,-2.519,-2.5189,-2.5119,-2.511,-2.5101,-2.5091,-2.5192,-2.5192,-2.5261,-2.5262,-2.5262]}]]